Home   Weather   Belfast   Past weeks
Flag for United Kingdom

Past Weather in Belfast, Northern Ireland, United Kingdom — Yesterday and Last 2 Weeks

Now
52 °F

More clouds than sun.


Feels Like: 48 °F
Forecast: 56 / 49 °F
Wind: 12 mph from Southwest

Location: Belfast / Harbour

Current Time: Mar 21, 2019 at 8:48:49 am

Latest Report: Mar 21, 2019 at 7:50 am


Visibility: N/A

Pressure: 30.39 "Hg

Humidity: 88%

Dew Point: 48 °F

Location of BelfastLocation

Past Weather in Belfast — Graph

°F

Belfast Temperature Yesterday

Maximum temperature yesterday: 59 °F (at 5:20 pm)
Minimum temperature yesterday: 48 °F (at 5:20 am)
Average temperature yesterday: 53 °F

High & Low Weather Summary for the Past Weeks

 TemperatureHumidityPressure
High59 °F (Mar 20, 5:20 pm)100% (Mar 9, 3:50 am)30.39 "Hg (Mar 9, 3:50 am)
Low34 °F (Mar 9, 4:50 am)53% (Mar 12, 2:50 pm)28.85 "Hg (Mar 6, 7:50 am)
Average45 °F83%29.68 "Hg
* Reported Mar 6 7:50 am — Mar 21 7:20 am, Belfast. Weather by CustomWeather, © 2019

Note: Actual official high and low records may vary slightly from our data, if they occured in-between our weather recording intervals... More about our weather records

Advertising

Belfast Weather History for the Previous 24 Hours

Scroll right to see more
 ConditionsComfort  
Time TempWeatherWind HumidityBarometerVisibility
7:20 am
Thu, Mar 21
52 °FMostly cloudy.13 mph88%30.39 "HgN/A
6:50 am52 °FMostly cloudy.10 mph88%30.39 "HgN/A
6:20 am52 °FPassing clouds.13 mph88%30.39 "HgN/A
5:50 am52 °FOvercast.14 mph88%30.36 "HgN/A
5:20 am52 °FPassing clouds.15 mph88%30.36 "HgN/A
4:50 am52 °FPassing clouds.13 mph88%30.36 "HgN/A
4:20 am52 °FPassing clouds.13 mph88%30.36 "HgN/A
3:50 am52 °FPassing clouds.13 mph94%30.33 "HgN/A
3:20 am52 °FLight rain. Mostly cloudy.10 mph88%30.36 "HgN/A
2:50 am52 °FLight rain. Overcast.9 mph88%30.36 "HgN/A
2:20 am52 °FMostly cloudy.10 mph88%30.33 "HgN/A
1:50 am52 °FPassing clouds.16 mph88%30.33 "HgN/A
1:20 am52 °FPassing clouds.13 mph88%30.33 "HgN/A
12:50 am52 °FPassing clouds.13 mph88%30.33 "HgN/A
12:20 am52 °FPassing clouds.13 mph88%30.33 "HgN/A
11:50 pm
Wed, Mar 20
52 °FPassing clouds.17 mph88%30.33 "HgN/A
11:20 pm52 °FCool.15 mph88%30.33 "HgN/A
10:50 pm52 °FCool.16 mph88%30.33 "HgN/A
10:20 pm54 °FCool.15 mph82%30.33 "HgN/A
9:50 pm54 °FPassing clouds.15 mph88%30.33 "HgN/A
9:20 pm55 °FPassing clouds.16 mph82%30.33 "HgN/A
8:50 pm55 °FPartly cloudy.14 mph82%30.33 "HgN/A
8:20 pm55 °FPassing clouds.18 mph82%30.30 "HgN/A
7:50 pm57 °FOvercast.15 mph77%30.30 "HgN/A
7:20 pm57 °FPassing clouds.15 mph82%30.30 "HgN/A
6:50 pm57 °FOvercast.17 mph82%30.30 "HgN/A
6:20 pm57 °FMore clouds than sun.16 mph82%30.30 "HgN/A
5:50 pm57 °FBroken clouds.12 mph82%30.30 "HgN/A
5:20 pm59 °FPartly sunny.15 mph77%30.30 "HgN/A
4:50 pm57 °FPartly sunny.13 mph82%30.30 "HgN/A
4:20 pm57 °FPartly sunny.15 mph82%30.30 "HgN/A
3:50 pm57 °FCloudy.17 mph82%30.30 "HgN/A
3:20 pm57 °FMostly cloudy.14 mph82%30.30 "HgN/A
2:50 pm57 °FMostly cloudy.14 mph82%30.30 "HgN/A
2:20 pm57 °FMostly cloudy.13 mph82%30.33 "HgN/A
1:50 pm57 °FOvercast.12 mph82%30.33 "HgN/A
1:20 pm55 °FMostly cloudy.10 mph88%30.33 "HgN/A
12:50 pm55 °FOvercast.14 mph82%30.33 "HgN/A
12:20 pm55 °FMostly cloudy.14 mph82%30.33 "HgN/A
11:50 am55 °FPartly sunny.16 mph88%30.33 "HgN/A
11:20 am55 °FBroken clouds.16 mph82%30.33 "HgN/A
10:50 am55 °FMostly cloudy.13 mph82%30.33 "HgN/A
10:20 am54 °FMostly cloudy.10 mph88%30.36 "HgN/A
9:50 am52 °FMostly cloudy.12 mph88%30.36 "HgN/A
9:20 am52 °FOvercast.10 mph88%30.36 "HgN/A
8:50 am52 °FMostly cloudy.10 mph88%30.33 "HgN/A
8:20 am50 °FMostly cloudy.12 mph94%30.33 "HgN/A
Weather by CustomWeather, © 2019

See weather overview